Weather History for KHRL - September, 2013

Change the Weather History Date:

Thursday, September 12, 2013

  Actual Average Record
Temperature  
Mean Temperature 81 °F 83 °F  
Max Temperature 87 °F 92 °F 101 °F (1930)
Min Temperature 75 °F 73 °F 64 °F (1940)
Degree Days  
Heating Degree Days 0 0  
Month to date heating degree days 0 0  
Since 1 July heating degree days 0 0  
Cooling Degree Days 16 18  
Month to date cooling degree days 203 222  
Year to date cooling degree days 3220 3146  
Growing Degree Days 31 (Base 50)    
Moisture  
Dew Point 74 °F    
Average Humidity 81    
Maximum Humidity 100    
Minimum Humidity 61    
Precipitation  
Precipitation 0.01 in 0.19 in 1.71 in (1966)
Month to date precipitation 2.00 2.11  
Year to date precipitation 13.84 16.32  
Sea Level Pressure  
Sea Level Pressure 29.92 in    
Wind  
Wind Speed 8 mph (NNE)    
Max Wind Speed 20 mph    
Max Gust Speed 23 mph    
Visibility 10 miles    
Events Rain    
T = Trace of Precipitation, MM = Missing Value Source: NWS Daily Summary

Daily Weather History Graph

Daily Weather History Graph

Search for Another Location

Airport or City:

Trip Planner

Search our weather history database for the weather conditions in past years. The results will help you decide how hot, cold, wet, or windy it might be!

Date:

Astronomy

Sep. 12, 2013 Rise Set
Actual Time 7:15 AM CDT 7:37 PM CDT
Civil Twilight 6:52 AM CDT 8:01 PM CDT
Nautical Twilight 6:24 AM CDT 8:28 PM CDT
Astronomical Twilight 5:57 AM CDT 8:55 PM CDT
Moon 2:07 PM CDT (9/12) 12:12 AM CDT (9/12)
Length of Visible Light 13h 09m
Length of Day
12h 22m
Waxing Crescent, 50% of the Moon is Illuminated
Sep 12
Waxing Crescent
Sep 12
First Quarter
Sep 19
Full
Sep 26
Last Quarter
Oct 4
New

Hourly Weather History & Observations

Time (CDT) Temp. Heat Index Dew Point Humidity Pressure Visibility Wind Dir Wind Speed Gust Speed Precip Events Conditions
12:52 AM 75.9 °F - 75.0 °F 97% 29.96 in 10.0 mi Calm Calm - N/A   Clear
1:52 AM 75.0 °F - 73.9 °F 96% 29.95 in 9.0 mi NW 4.6 mph - N/A   Clear
2:08 AM 75.2 °F - 75.2 °F 100% 29.94 in 10.0 mi North 4.6 mph - N/A   Mostly Cloudy
2:15 AM 75.2 °F - 75.2 °F 100% 29.94 in 10.0 mi Calm Calm - N/A   Scattered Clouds
2:52 AM 75.9 °F - 73.9 °F 94% 29.93 in 10.0 mi North 4.6 mph - N/A   Clear
3:52 AM 75.0 °F - 73.0 °F 94% 29.92 in 9.0 mi WNW 4.6 mph - N/A   Clear
4:52 AM 75.9 °F - 73.9 °F 94% 29.92 in 10.0 mi North 4.6 mph - N/A   Partly Cloudy
5:52 AM 75.0 °F - 73.0 °F 94% 29.92 in 9.0 mi North 5.8 mph - N/A   Partly Cloudy
6:52 AM 75.0 °F - 73.0 °F 94% 29.92 in 10.0 mi NNE 6.9 mph - N/A   Clear
7:52 AM 75.9 °F - 73.9 °F 94% 29.94 in 10.0 mi NNE 3.5 mph - N/A   Clear
8:52 AM 77.0 °F - 73.9 °F 90% 29.96 in 10.0 mi North 6.9 mph - 0.01 in   Clear
9:52 AM 81.0 °F 87.3 °F 75.9 °F 85% 29.96 in 10.0 mi NNW 6.9 mph - N/A   Clear
10:52 AM 84.9 °F 94.1 °F 75.9 °F 74% 29.96 in 10.0 mi NE 9.2 mph - N/A   Mostly Cloudy
10:59 AM 82.4 °F 89.5 °F 75.2 °F 79% 29.97 in 9.0 mi East 8.1 mph - 0.00 in Rain Light Rain
11:52 AM 84.9 °F 93.3 °F 75.0 °F 72% 29.96 in 10.0 mi ENE 16.1 mph - 0.00 in   Partly Cloudy
12:52 PM 87.1 °F 95.4 °F 73.9 °F 65% 29.94 in 10.0 mi ENE 15.0 mph - N/A   Mostly Cloudy
1:52 PM 86.0 °F 93.8 °F 73.9 °F 67% 29.93 in 10.0 mi ENE 13.8 mph - N/A   Partly Cloudy
2:52 PM 86.0 °F 93.8 °F 73.9 °F 67% 29.90 in 10.0 mi ENE 15.0 mph - N/A   Scattered Clouds
3:52 PM 86.0 °F 93.0 °F 73.0 °F 65% 29.87 in 10.0 mi ENE 15.0 mph - N/A   Clear
4:52 PM 86.0 °F 92.2 °F 72.0 °F 63% 29.86 in 10.0 mi NE 11.5 mph - N/A   Partly Cloudy
5:52 PM 84.9 °F 91.4 °F 73.0 °F 67% 29.87 in 10.0 mi ENE 12.7 mph - N/A   Partly Cloudy
6:52 PM 82.9 °F 88.8 °F 73.0 °F 72% 29.88 in 10.0 mi NE 17.3 mph 21.9 mph N/A   Partly Cloudy
7:52 PM 80.1 °F 84.5 °F 73.9 °F 81% 29.89 in 10.0 mi NE 3.5 mph - N/A   Clear
8:52 PM 80.1 °F 84.5 °F 73.9 °F 81% 29.90 in 10.0 mi ENE 5.8 mph - N/A   Partly Cloudy
9:52 PM 78.1 °F - 73.9 °F 87% 29.91 in 10.0 mi NE 3.5 mph - N/A   Clear
10:52 PM 78.1 °F - 73.0 °F 84% 29.92 in 10.0 mi ENE 3.5 mph - N/A   Clear
11:52 PM 75.9 °F - 73.0 °F 91% 29.90 in 10.0 mi NNW 3.5 mph - N/A   Clear